This demonstration page uses our WeatherBlox Daily Observations layout. Learn more.

Left ArrowRight Arrow

Hourly Observations for October 9, 2015

Temp ( °F °C ) Dew Point ( °F °C ) Humidity (%) Winds ( mph kmh ) Pressure ( in mb ) Visibility ( mi km ) Precip ( " mm )
12:15 am 00:15 Clear 52 11 46 8 82 82 NNW 10 17 30.24 1024 10 16 0.00 0.00
12:35 am 00:35 Clear 52 11 45 7 77 77 NNW 13 20 30.24 1024 10 16 0.00 0.00
12:55 am 00:55 Clear 52 11 45 7 77 77 N 13 20 30.24 1024 10 16 0.00 0.00
1:15 am 01:15 Clear 52 11 45 7 77 77 N 10 17 30.24 1024 10 16 0.00 0.00
1:35 am 01:35 Clear 52 11 45 7 77 77 N 12 19 30.24 1024 10 16 0.00 0.00
1:55 am 01:55 Clear 52 11 45 7 77 77 NNW 9 15 30.24 1024 10 16 0.00 0.00
2:15 am 02:15 Clear 52 11 45 7 77 77 NNW 9 15 30.27 1025 10 16 0.00 0.00
2:35 am 02:35 Clear 52 11 45 7 77 77 NNW 9 15 30.27 1025 10 16 0.00 0.00
2:55 am 02:55 Clear 52 11 45 7 77 77 NNW 7 11 30.27 1025 10 16 0.00 0.00
3:15 am 03:15 Clear 50 10 45 7 82 82 NNW 7 11 30.30 1026 10 16 0.00 0.00
3:35 am 03:35 Clear 50 10 45 7 82 82 NNW 6 9 30.30 1026 10 16 0.00 0.00
3:55 am 03:55 Clear 48 9 43 6 82 82 NNW 6 9 30.30 1026 10 16 0.00 0.00
4:15 am 04:15 Clear 48 9 43 6 82 82 NW 6 9 30.30 1026 10 16 0.00 0.00
4:35 am 04:35 Clear 48 9 43 6 82 82 NW 3 6 30.30 1026 10 16 0.00 0.00
4:55 am 04:55 Clear 46 8 41 5 82 82 Calm 30.30 1026 10 16 0.00 0.00
5:15 am 05:15 Partly Cloudy 46 8 41 5 82 82 Calm 30.33 1027 10 16 0.00 0.00
5:35 am 05:35 Cloudy 46 8 43 6 87 87 Calm 30.33 1027 10 16 0.00 0.00
5:55 am 05:55 Mostly Cloudy 46 8 43 6 87 87 NNW 5 7 30.33 1027 10 16 0.00 0.00
6:15 am 06:15 Mostly Cloudy 46 8 43 6 87 87 NNW 6 9 30.33 1027 10 16 0.00 0.00
6:35 am 06:35 Cloudy 46 8 43 6 87 87 NW 3 6 30.33 1027 1 2 0.00 0.00
6:55 am 06:55 Cloudy 46 8 43 6 87 87 NNW 5 7 30.33 1027 2 3 0.00 0.00
7:15 am 07:15 Cloudy 46 8 43 6 87 87 NW 5 7 30.33 1027 0 0 0.00 0.00
7:35 am 07:35 Cloudy 46 8 43 6 87 87 WNW 6 9 30.33 1027 5 8 0.00 0.00
7:55 am 07:55 Cloudy 46 8 43 6 87 87 WNW 7 11 30.36 1028 5 8 0.00 0.00
8:15 am 08:15 Cloudy 46 8 43 6 87 87 WNW 7 11 30.36 1028 5 8 0.00 0.00
8:35 am 08:35 Cloudy 46 8 43 6 87 87 W 7 11 30.36 1028 5 8 0.00 0.00
8:55 am 08:55 Cloudy 46 8 43 6 87 87 W 8 13 30.36 1028 5 8 0.00 0.00
9:15 am 09:15 Cloudy 46 8 43 6 87 87 WNW 7 11 30.42 1030 1 1 0.00 0.00
9:35 am 09:35 Cloudy 48 9 45 7 87 87 WNW 5 7 30.39 1029 5 8 0.00 0.00
9:55 am 09:55 Mostly Cloudy 48 9 45 7 87 87 NW 5 7 30.39 1029 10 16 0.00 0.00
10:15 am 10:15 Mostly Sunny 52 11 45 7 77 77 NW 5 7 30.39 1029 10 16 0.00 0.00
10:35 am 10:35 Sunny 54 12 45 7 72 72 Calm 30.36 1028 10 16 0.00 0.00
10:55 am 10:55 Sunny 55 13 45 7 67 67 Calm 30.36 1028 10 16 0.00 0.00
11:15 am 11:15 Sunny 55 13 45 7 67 67 Calm 30.33 1027 10 16 0.00 0.00
11:35 am 11:35 Sunny 57 14 45 7 63 63 Calm 30.33 1027 10 16 0.00 0.00
11:55 am 11:55 Sunny 57 14 45 7 63 63 SW 5 7 30.33 1027 10 16 0.00 0.00
12:15 pm 12:15 Sunny 61 16 46 8 59 59 Calm 30.30 1026 10 16 0.00 0.00
12:35 pm 12:35 Sunny 61 16 45 7 55 55 Calm 30.30 1026 10 16 0.00 0.00
12:55 pm 12:55 Sunny 63 17 45 7 52 52 N 3 6 30.27 1025 10 16 0.00 0.00
1:15 pm 13:15 Sunny 63 17 45 7 52 52 Calm 30.27 1025 10 16 0.00 0.00
1:55 pm 13:55 Sunny 64 18 45 7 49 49 ENE 3 6 30.24 1024 10 16 0.00 0.00
2:15 pm 14:15 Sunny 66 19 43 6 43 43 W 8 13 30.21 1023 10 16 0.00 0.00
2:35 pm 14:35 Sunny 66 19 45 7 46 46 WNW 6 9 30.21 1023 10 16 0.00 0.00
2:55 pm 14:55 Sunny 66 19 43 6 43 43 WNW 6 9 30.21 1023 10 16 0.00 0.00
3:15 pm 15:15 Sunny 66 19 43 6 43 43 W 6 9 30.21 1023 10 16 0.00 0.00
3:35 pm 15:35 Sunny 66 19 43 6 43 43 SSW 5 7 30.21 1023 10 16 0.00 0.00
3:55 pm 15:55 Sunny 68 20 43 6 40 40 W 5 7 30.21 1023 10 16 0.00 0.00
4:15 pm 16:15 Sunny 66 19 43 6 43 43 WNW 3 6 30.21 1023 10 16 0.00 0.00
4:35 pm 16:35 Sunny 66 19 41 5 40 40 NW 5 7 30.18 1022 10 16 0.00 0.00
4:55 pm 16:55 Sunny 68 20 41 5 38 38 NNW 3 6 30.18 1022 10 16 0.00 0.00
5:15 pm 17:15 Sunny 66 19 43 6 43 43 Calm 30.18 1022 10 16 0.00 0.00
5:35 pm 17:35 Sunny 66 19 43 6 43 43 Calm 30.18 1022 10 16 0.00 0.00
5:55 pm 17:55 Sunny 66 19 43 6 43 43 Calm 30.18 1022 10 16 0.00 0.00
6:15 pm 18:15 Sunny 64 18 43 6 46 46 SE 5 7 30.18 1022 10 16 0.00 0.00
6:35 pm 18:35 Sunny 64 18 45 7 49 49 ESE 6 9 30.18 1022 10 16 0.00 0.00
6:55 pm 18:55 Sunny 63 17 45 7 52 52 ESE 5 7 30.21 1023 10 16 0.00 0.00
7:15 pm 19:15 Clear 61 16 45 7 55 55 ESE 6 9 30.18 1022 10 16 0.00 0.00
7:35 pm 19:35 Clear 59 15 43 6 55 55 SE 8 13 30.18 1022 10 16 0.00 0.00
7:55 pm 19:55 Clear 59 15 43 6 55 55 SE 8 13 30.18 1022 10 16 0.00 0.00
8:15 pm 20:15 Clear 61 16 43 6 52 52 SSE 5 7 30.18 1022 10 16 0.00 0.00
8:35 pm 20:35 Clear 57 14 43 6 59 59 SSE 5 7 30.18 1022 10 16 0.00 0.00
8:55 pm 20:55 Clear 57 14 43 6 59 59 S 7 11 30.18 1022 10 16 0.00 0.00
9:15 pm 21:15 Clear 57 14 43 6 59 59 S 6 9 30.18 1022 10 16 0.00 0.00
9:35 pm 21:35 Clear 55 13 43 6 63 63 S 6 9 30.21 1023 10 16 0.00 0.00
9:55 pm 21:55 Clear 55 13 43 6 63 63 SSE 5 7 30.24 1024 10 16 0.00 0.00
10:15 pm 22:15 Clear 55 13 43 6 63 63 SE 7 11 30.24 1024 6 10 0.00 0.00
10:35 pm 22:35 Clear 54 12 39 4 58 58 SSE 8 13 30.21 1023 5 8 0.00 0.00
10:55 pm 22:55 Clear 54 12 39 4 58 58 SSE 10 17 30.21 1023 10 16 0.00 0.00
11:15 pm 23:15 Clear 54 12 39 4 58 58 SSE 9 15 30.21 1023 10 16 0.00 0.00
11:35 pm 23:35 Clear 54 12 39 4 58 58 S 13 20 30.21 1023 10 16 0.00 0.00
11:55 pm 23:55 Clear 54 12 37 3 54 54 S 13 20 30.21 1023 10 16 0.00 0.00

Powered by AerisWeather